Погода в Елабуге

Погода в Елабуге : погода сейчас, прогноз погоды и архив. Всё, что Вы хотите узнать о погоде в Елабуге!

Поиск расширенной информации на нашем сайте:

Другие новости

Новости СМИ2

Главная страница сайта

Новости сайта

03.07.2017

Напоминаем, что на нашем специализированном сайте Метеоцентр.Азия вы можете получить высокодетализированные автоматические прогнозы погоды по пунктам России, СНГ и мира в авиационном формате (включающие направление и скорость ветра, видимость, явления погоды, количество и форму облачности, нижнюю и верхнюю границу облачности).

Рекомендуем: http://teplo-dim.com/ купити електрокамін у львові - каміни електричні електрокаміни.

Погода в Елабуге - сегодня

Время (UTC), дата Ветер
(°,м/с) 
Видим.   Явления Облачность Т
(°С)
Тd
(°С)
f(%) Тe
(°С)
Pmin
(гПа)
dP
(гПа)
Po
(мм)
O2
(г/м3)
Тmin Tmax R s Состояние
почвы
09 18.02.18 190 (Ю) 20000 м    ясно 
-16.1 -24.3 49 -18  1020  0.2  759  327    -12.6       
12 18.02.18 170 (Ю) 20000 м    ясно 
-18 -23.8 60 -23  1019.6  -0.4  758  329           
15 18.02.18 160 (Ю) 20000 м    ясно 
-20.1 -24.2 70 -26  1018.6  -1.1  758  331           
18 18.02.18 170 (Ю) 20000 м    ясно 
-20 -24.7 66 -25  1017.4  -1.2  757  331           
00 19.02.18 180 (Ю) 20000 м    8/0 верхняя 
[Ci fib]
-17.7 -24.1 57 -22  1015.3  -0.4  755  327  -20.9         
03 19.02.18 230 (ЮЗ) 20000 м    5/0 верхняя 
[Ci fib]
-11.5 -22.2 41 -15  1014  -1.1  754  319           
12 19.02.18 210 (ЮЗ) 20000 м    ясно 
-15.3 -22.1 56 -19  1013.2  -0.5  754  323           
15 19.02.18 190 (Ю) 20000 м    ясно 
-18.9 -24.4 62 -23  1012.7  -0.6  753  328           
18 19.02.18 200 (Ю) 20000 м    ясно 
-18.9 -26.6 51 -23  1012.1  -0.5  753  328           
21 19.02.18 230 (ЮЗ) 4{10}  20000 м    3/0 верхняя 
[Ci fib]
-17.7 -27 44 -23  1011.2  -0.8  752  326  -20.9      30  равномерный
сухой снег
100% 
00 20.02.18 250 (З) 20000 м    ясно 
-18.1 -26.7 47 -24  1011.7  0.4  752  326  -22.4         
03 20.02.18 250 (З) 20000 м    9/0 средняя, верхняя 
[Ac trans|Ci fib]
-14.8 -23.3 48 -20  1011.9  0.3  753  322           
06 20.02.18 250 (З) 20000 м    3/0 средняя 
[Ac trans]
-13.4 -22.3 47 -19  1012  0.2  753  321           
12 20.02.18 160 (Ю) 20000 м    ясно 
-18.3 -24.4 59 -22  1013.7  0.2  754  327           
15 20.02.18 190 (Ю) 20000 м    ясно 
-19.7 -25.8 58 -22  1013.5  -0.2  754  329           
18 20.02.18 160 (Ю) 20000 м    ясно 
-23.1 -27.9 65 -29  1013.5  0.1  754  334           
00 21.02.18 170 (Ю) 20000 м    ясно 
-22 -28.5 56 -27  1014.9  0.9  755  333  -25.2         
03 21.02.18 250 (З) 20000 м    1/0 верхняя 
[Ci fib]
-14.7 -24.5 43 -20  1014.5  -0.2  755  323           
06 21.02.18 240 (ЮЗ) 20000 м    ясно 
-12.4 -23.3 40 -18  1013.6  -0.8  754  320           
09 21.02.18 220 (ЮЗ) 20000 м    ясно 
-13.9 -23.6 44 -17  1014.8  1.1  755  322    -11.9       
12 21.02.18 170 (Ю) 20000 м    ясно 
-17.8 -24.3 57 -22  1016.1  1.1  756  327           
15 21.02.18 150 (ЮВ) 20000 м    ясно 
-20.3 -24.7 68 -25  1015.7  -0.5  755  331           
18 21.02.18 160 (Ю) 20000 м    ясно 
-20.6 -25.4 65 -25  1015  -0.7  755  331           
00 22.02.18 170 (Ю) 20000 м    10/0 верхняя 
[Cs]
-16.8 -24.7 50 -21  1015.2  0.7  755  326           
03 22.02.18 190 (Ю) 20000 м  в посл. час снег  10/0 верхняя 
[Ci fib]
-10.8 -18 55 -13  1014.6  -0.4  755  318           
Время (UTC), дата Ветер
(°,м/с) 
Видим.   Явления Облачность Т
(°С)
Тd
(°С)
f(%) Тe
(°С)
Pmin
(гПа)
dP
(гПа)
Po
(мм)
O2
(г/м3)
Тmin Tmax R s Состояние
почвы

Для получения пояснительной информации подведите курсор к названию столбца.

ПОГОДА в Елабуге - архив

Всё, что Вы хотите узнать о погоде в Елабуге - удобно и подробно!

Выберите нужную дату (начиная с 1 января 2015* года) и нажмите кнопку "Найти".
Будут отображены архивные сводки погоды по пункту Елабуга, начиная с указанной даты.


Отображать данные в формате CSV (для использования в таблицах Excel)


Внимание! Наш архив погоды предназначен исключительно для личного некоммерческого использования в познавательных целях. Если Вам необходимы официальные справки о состоянии погоды (для производственных, юридических, коммерческих и т.п. целей), обращайтесь в органы Росгидромета.

*Примечание: данная дата относится к архиву по метеостанциям СССР (Россия, СНГ, Балтия).
Архив по метеостанциям Зарубежной Европы и Азии (кроме Китая) хранится 10 дней, по другим регионам земного шара (Китай, Африка, Америка, Австралия, Океания) - 1 день.

Елабуга - район местоположения метеостанции


Название, широта, долгота, высота метеостанции:
Елабуга 48.8°ш. 135.9°д. 58 м над ур. моря [Российская Федерация]

Дополнительная информация

В oтличие oт бoльшинства пoгoдных сайтoв мы публикуем пoдрoбную метеoинфoрмацию в детальнoм прoфессиoнальнoм фoрмате.

Характеристики температуры и влажнoсти вoздуха измеряются на высoте 2 м в тени вдали oт зданий и деревьев.
Скoрoсть ветра измеряется на высoте 10 м (на урoвне рoста челoвека скoрoсть ветра ниже в 1.5-2 раза). Если метеoстанция нахoдится в гoрoде или в лесу, тo скoрoсть ветра занижена на 2-4 м/с пo сравнению с oткрытым местoм. Скoрoсть ветра над акватoриями крупных рек и oзёр, а также на вершинах хoлмoв на 2-5 м/с выше, чем в oбычных услoвиях.
Атмoсфернoе давление в разных тoчках местнoсти мoжет значительнo oтличаться oт давления на метеoстанции, в зависимoсти oт услoвий рельефа (при пoдъёме на 10 м давление пoнижается примернo на 1 мм рт.ст.).